SENTINEL-1A (39634 NORAD) Tracking and Keplerian Element Data

This shows tracking and keplerian element data for the satellite.

Feedback or suggestion? Click here.




ElementValue
Catalog39634
NameSENTINEL-1A
Epoch Orbit45184
Epoch Day270.07628576
Epoch Year2022
RAAN276.1944
Inclination98.1822
Eccentricity0.0001257
Argument of Perigee76.9701
Mean Anonmoly283.1646
Mean Motion14.59193945
Decay Rate-4.58E-06
L11 39634U 14016A 22270.07628576 -.00000458 00000+0 -87369-4 0 9996
L22 39634 98.1822 276.1944 0001257 76.9701 283.1646 14.59193945451847

Live tracking and technical data element details for SENTINEL-1A (NORAD 39634). SENTINEL-1A can be tracked NOW for your location showing map with azimuth and elevation plus other details from your city location.

Track the satellite on the map from your city or location and see movement details for azimuth, elevation, latitude, longitude, range, height, and movement on the map or in text.







IsCatalogInMostPopularTable: catalog: 39634, numindb: 658
Update: records affected: 1



GetName: 39634 SENTINEL-1A

Hit Count: updated at: Wed, 28 Sep 2022 21:59:01 GMT